sat.trackr.live / text

‹ back to catalog

ONEWEB-0201

NORAD 48241 · 2021-031AH

PAYLOAD ACTIVE UNKNOWN

§ Identity

Operator
Country
UK
Launch date
2021-04-25
Launch site
VOSTO
Launch vehicle
Mass (kg)
RCS (m²)

Purposes: comms

External: N2YO · Heavens-Above · Gunter

§ Orbital elements

Epoch: 2026-09-19T23:09:31.886496Z

Period
109.55 min
Inclination
87.8897°
Eccentricity
0.0001878
Mean motion
13.14502784 rev/d
Perigee alt
1,204.4 km
Apogee alt
1,207.2 km
Semi-major
7,583.9 km
B*
-3.6168e-4
RAAN
270.8103°
Arg perigee
101.4469°
Mean anomaly
258.6872°
Rev number
26,083

§ Raw data

ONEWEB-02011 48241U 21031AH  26262.96495239 -.00000121  00000+0 -36168-3 0  99932 48241  87.8897 270.8103 0001878 101.4469 258.6872 13.14502784260830

JSON: /api/v1/satellites/48241 · /tle

For live sub-satellite position, see the globe view (requires WebGL).

§ Visibility from observer

Set your observer location to see the next 7 days of passes ≥ 10°. The values pass through the URL so the page stays shareable.

No JS? Fill the form by hand. The geolocation button needs JavaScript.